Flag for Argentina Weather past 2 weeks in Buenos Aires, Argentina

Now
64 °F

Partly cloudy.


Feels Like: 64 °F
Forecast: 54 / 66 °F
Wind: 3 mph from South

Location: Buenos Aires Airport

Current Time: Jul 31, 2015 at 6:28:08 AM

Latest Report: Jul 31, 2015 at 6:00 AM


Visibility: N/A

Pressure: 29.65 "Hg

Humidity: 88%

Dew point: 61 °F

Location of Buenos AiresLocation

Historic Weather in Buenos Aires — Graph

°F

Buenos Aires temperature yesterday

Maximum temperature yesterday: 64 °F (at 9:00 PM)
Minimum temperature yesterday: 55 °F (at 1:00 AM)
Average temperature yesterday: 60 °F

Past Weeks' High & Low Weather Summary

 TemperatureHumidityPressure
High72 °F (Jul 28, 4:00 PM)100% (Jul 30, 3:00 PM)30.33 "Hg (Jul 30, 3:00 PM)
Low43 °F (Jul 21, 4:00 AM)31% (Jul 19, 6:00 PM)29.68 "Hg (Jul 31, 4:00 AM)
Average56 °F76%30.12 "Hg
* Reported Jul 16 4:00 AM — Jul 31 4:00 AM, Buenos Aires, Weather by CustomWeather, © 2015

Note: Actual official high and low records may vary slightly from our data, if they occured in-between our weather recording intervals... More about our weather records

Advertising

Buenos Aires weather history for previous 24 hours

 ConditionsComfort  
Time TempWeatherWind HumidityBarometerVisibility
4:00 AM
Fri, Jul 31
64 °FPartly cloudy.6 mph88%29.68 "HgN/A
3:00 AM64 °FPassing clouds.5 mph88%29.71 "HgN/A
2:00 AM64 °FPartly cloudy.8 mph94%29.74 "HgN/A
1:00 AM64 °FPassing clouds.7 mph88%29.74 "HgN/A
12:00 AM64 °FPartly cloudy.5 mph88%29.80 "HgN/A
11:00 PM
Thu, Jul 30
64 °FPartly cloudy.5 mph88%29.83 "HgN/A
10:00 PM64 °FPassing clouds.7 mph88%29.83 "HgN/A
9:00 PM64 °FPassing clouds.17 mph88%29.95 "HgN/A
8:00 PM63 °FPartly cloudy.13 mph94%29.86 "HgN/A
7:00 PM61 °FPassing clouds.12 mph100%29.86 "Hg3 mi
6:25 PM61 °FRain. Partly cloudy.16 mph100%29.92 "Hg1 mi
6:00 PM61 °FRain. Passing clouds.12 mph100%29.92 "Hg2 mi
5:00 PM63 °FRain. More clouds than sun.12 mph100%29.95 "Hg2 mi
4:00 PM63 °FHeavy rain. Broken clouds.8 mph100%29.95 "Hg2 mi
3:00 PM61 °FStrong thunderstorms. Partly sunny.7 mph100%29.95 "Hg3 mi
2:00 PM61 °FRain. Broken clouds.12 mph88%29.95 "Hg6 mi
1:00 PM61 °FBroken clouds.16 mph88%29.98 "HgN/A
12:00 PM61 °FSunny.16 mph88%30.04 "Hg10 mi
11:00 AM61 °FPartly sunny.13 mph88%30.07 "HgN/A
10:00 AM59 °FOvercast.14 mph94%30.07 "HgN/A
9:00 AM59 °FPartly sunny.12 mph88%30.09 "Hg6 mi
8:00 AM59 °FLow clouds.13 mph88%30.07 "Hg6 mi
7:00 AM59 °FBroken clouds.14 mph88%30.07 "HgN/A
6:00 AM57 °FPartly cloudy.17 mph88%30.07 "HgN/A
Weather by CustomWeather, © 2015

See weather overviewHow to use our weather pages